FW0135 Weather Reports


Display with metric or nautical units.
time (UTC)temp
F
wind
direction
speed
MPH
gust
MPH
rain 1hr
in
rain 24hr
in
rain mn
in
humidity
%
barometer
mb
20260508122341 44 342 0.0 0.0 0.00 0.01 0.00 71 995.1
20260508121841 43 342 0.0 0.0 0.00 0.01 0.00 75 995.1
20260508121341 42 342 0.0 0.0 0.00 0.01 0.00 76 995.2
20260508120842 42 342 0.0 0.0 0.00 0.01 0.00 78 995.2
20260508115340 40 342 0.0 0.0 0.00 0.01 0.00 83 995.3
20260508114341 38 342 0.0 0.0 0.00 0.01 0.00 86 995.3
20260508113841 38 342 0.0 0.0 0.00 0.01 0.00 87 995.3
20260508113341 37 342 0.0 0.0 0.00 0.01 0.00 87 995.3
20260508112841 37 342 0.0 0.0 0.00 0.01 0.00 87 995.3
20260508112338 36 342 0.0 0.0 0.00 0.01 0.00 87 995.3
20260508111832 36 342 0.0 0.0 0.00 0.01 0.00 88 995.2
20260508111326 35 342 0.0 0.0 0.00 0.01 0.00 88 995.1
20260508110315 34 342 0.0 0.0 0.00 0.01 0.00 88 995.0
20260508105808 34 342 0.0 0.0 0.00 0.01 0.00 88 995.0
20260508104757 33 342 0.0 0.0 0.00 0.01 0.00 88 994.9
20260508104251 33 342 0.0 0.0 0.00 0.01 0.00 87 994.9
20260508103745 33 342 0.0 0.0 0.00 0.01 0.00 87 994.8
20260508102732 33 342 0.0 0.0 0.00 0.01 0.00 87 994.7
20260508101721 33 342 0.0 0.0 0.00 0.01 0.00 87 994.6
20260508101215 33 342 0.0 0.0 0.00 0.01 0.00 87 994.5
20260508100709 33 342 0.0 0.0 0.00 0.01 0.00 87 994.5
20260508100203 33 342 0.0 0.0 0.00 0.01 0.00 87 994.6
20260508094139 33 342 0.0 0.0 0.00 0.01 0.00 86 994.4
20260508093632 33 342 0.0 0.0 0.00 0.01 0.00 86 994.3
20260508093126 33 342 0.0 0.0 0.00 0.01 0.00 87 994.1
20260508092620 33 342 0.0 0.0 0.00 0.01 0.00 87 994.0
20260508092114 33 342 0.0 0.0 0.00 0.01 0.00 86 994.1
20260508091608 33 342 0.0 0.0 0.00 0.01 0.00 86 994.1
20260508091102 33 342 0.0 0.0 0.00 0.01 0.00 86 994.0
20260508085545 33 342 0.0 0.0 0.00 0.01 0.00 87 994.0
20260508085038 33 342 0.0 0.0 0.00 0.01 0.00 87 994.0
20260508084533 33 342 0.0 0.0 0.00 0.01 0.00 87 993.9
20260508084026 33 342 0.0 0.0 0.00 0.01 0.00 86 994.0
20260508083521 33 342 0.0 0.0 0.00 0.01 0.00 86 994.0
20260508083015 33 342 0.0 0.0 0.00 0.01 0.00 86 994.0
20260508082509 33 342 0.0 0.0 0.00 0.01 0.00 86 993.9
20260508082004 33 342 0.0 0.0 0.00 0.01 0.00 86 993.9
20260508080950 33 342 0.0 0.0 0.00 0.01 0.00 86 993.7
20260508080445 34 342 0.0 0.0 0.00 0.01 0.00 86 993.6
20260508075938 34 342 0.0 0.0 0.00 0.01 0.00 85 993.6
20260508075432 34 342 0.0 0.0 0.00 0.01 0.00 85 993.5
20260508074926 34 342 0.0 0.0 0.00 0.01 0.00 85 993.5
20260508074420 34 342 0.0 0.0 0.00 0.01 0.00 85 993.4
20260508073914 34 342 0.0 0.0 0.00 0.01 0.00 85 993.4
20260508073408 34 342 0.0 0.0 0.00 0.01 0.00 85 993.4
20260508072902 35 342 0.0 0.0 0.00 0.01 0.00 85 993.4
20260508072357 35 342 0.0 0.0 0.00 0.01 0.00 84 993.4
20260508071851 35 342 0.0 0.0 0.00 0.01 0.00 84 993.5
20260508071345 35 342 0.0 0.0 0.00 0.01 0.00 84 993.5
20260508070838 35 342 0.0 0.0 0.00 0.01 0.00 84 993.5
20260508070332 35 342 0.0 0.0 0.00 0.01 0.00 84 993.5
20260508065826 35 342 0.0 0.0 0.00 0.01 0.00 84 993.4
20260508065320 35 342 0.0 0.0 0.00 0.01 0.00 83 993.5
20260508064814 35 342 0.0 0.0 0.00 0.01 0.00 83 993.6
20260508064308 36 342 0.0 0.0 0.00 0.01 0.00 83 993.6
20260508063802 36 342 0.0 0.0 0.00 0.01 0.00 83 993.5
20260508063256 36 342 0.0 0.0 0.00 0.01 0.00 83 993.4
20260508062750 36 342 0.0 0.0 0.00 0.01 0.00 83 993.2
20260508062244 36 342 0.0 0.0 0.00 0.01 0.00 83 993.1
20260508061744 36 342 0.0 0.0 0.00 0.01 0.00 83 993.3
20260508060741 37 342 0.0 0.0 0.00 0.01 0.00 82 993.7
20260508060240 37 342 0.0 0.0 0.00 0.01 0.00 82 993.7
20260508055740 37 342 0.0 0.0 0.00 0.01 0.00 81 993.6
20260508055238 37 342 0.0 0.0 0.00 0.01 0.00 81 993.7
20260508053736 38 342 0.0 0.0 0.00 0.01 0.00 81 993.9
20260508052735 38 342 0.0 0.0 0.00 0.01 0.00 80 994.0
20260508052235 38 342 0.0 0.0 0.00 0.01 0.00 80 993.9
20260508051735 38 342 0.0 0.0 0.00 0.01 0.00 80 993.9
20260508051236 38 342 0.0 0.0 0.00 0.01 0.00 79 994.0
20260508050732 38 342 0.0 0.0 0.00 0.01 0.00 80 994.1
20260508050231 39 342 0.0 0.0 0.00 0.01 0.00 79 994.1
20260508045732 39 342 0.0 0.0 0.00 0.01 0.00 78 994.1
20260508045232 39 342 0.0 0.0 0.00 0.01 0.00 78 994.0
20260508044732 39 342 0.0 1.0 0.00 0.01 0.00 78 994.1
20260508044233 39 342 1.0 2.0 0.00 0.01 0.00 78 994.1
20260508043732 40 342 0.0 2.0 0.00 0.01 0.00 78 994.1
20260508042732 40 342 0.0 1.0 0.00 0.01 0.00 77 994.1
20260508042229 40 342 0.0 2.0 0.00 0.01 0.00 76 994.1
20260508041228 41 342 0.0 0.0 0.00 0.01 0.00 75 994.2
20260508040727 41 342 0.0 0.0 0.00 0.01 0.00 74 994.2
20260508040227 41 342 0.0 0.0 0.00 0.01 0.00 74 994.2
20260508035726 41 342 0.0 0.0 0.00 0.01 0.01 74 994.2
20260508034725 42 342 0.0 0.0 0.00 0.01 0.01 73 994.2
20260508034224 42 342 0.0 0.0 0.00 0.01 0.01 73 994.2
20260508033722 42 342 0.0 1.0 0.00 0.01 0.01 73 994.2
20260508032719 43 342 0.0 2.0 0.00 0.01 0.01 71 994.2
20260508032214 43 342 0.0 2.0 0.00 0.01 0.01 70 994.1
20260508031715 43 338 0.0 0.0 0.00 0.01 0.01 70 994.2
20260508031215 44 338 0.0 0.0 0.00 0.01 0.01 69 994.1
20260508030714 44 338 0.0 0.0 0.00 0.01 0.01 71 994.1
20260508030215 44 338 0.0 0.0 0.00 0.01 0.01 69 994.1
20260508025715 44 338 0.0 0.0 0.00 0.01 0.01 71 994.1
20260508025215 44 338 0.0 0.0 0.00 0.02 0.01 70 994.1
20260508024715 44 338 0.0 0.0 0.00 0.03 0.01 70 994.1
20260508023216 44 338 0.0 0.0 0.00 0.04 0.01 71 994.0
20260508022715 44 338 0.0 0.0 0.00 0.05 0.01 69 994.0
20260508022215 44 338 0.0 0.0 0.00 0.05 0.01 67 994.0
20260508021715 45 338 0.0 0.0 0.00 0.05 0.01 67 994.0
20260508021216 45 338 0.0 0.0 0.00 0.05 0.01 68 994.0
20260508020717 45 338 0.0 0.0 0.00 0.05 0.01 69 993.9
20260508020216 45 338 0.0 0.0 0.00 0.05 0.01 66 993.9
20260508015716 45 338 0.0 1.0 0.00 0.05 0.01 68 993.8
20260508015210 46 338 0.0 1.0 0.00 0.05 0.01 66 993.6
20260508014158 46 338 0.0 0.0 0.00 0.06 0.01 66 993.4
20260508013652 46 338 0.0 1.0 0.00 0.06 0.01 66 993.3
20260508013146 46 338 0.0 1.0 0.00 0.07 0.01 64 993.3
20260508012640 47 338 0.0 0.0 0.00 0.07 0.01 65 993.2
20260508010616 48 338 0.0 0.0 0.00 0.09 0.01 61 992.9
20260508010110 48 338 0.0 0.0 0.00 0.11 0.01 62 992.9
20260508005604 48 338 0.0 0.0 0.00 0.17 0.01 60 992.8
20260508005058 49 338 0.0 0.0 0.00 0.17 0.01 57 992.7
20260508004552 49 338 0.0 0.0 0.00 0.17 0.01 60 992.8
20260508004046 49 338 0.0 0.0 0.00 0.17 0.01 60 992.7
20260508002528 51 338 0.0 0.0 0.00 0.18 0.01 57 992.4
20260508002021 51 338 0.0 1.0 0.00 0.18 0.01 60 992.4
20260508001515 52 338 0.0 1.0 0.00 0.18 0.01 56 992.2
20260508001009 52 338 0.0 1.0 0.00 0.18 0.01 54 992.2
20260508000504 53 338 0.0 1.0 0.00 0.18 0.01 55 992.2
20260507235957 53 338 0.0 1.0 0.00 0.18 0.01 55 992.1
20260507235452 53 338 0.0 3.0 0.00 0.18 0.01 48 992.1
20260507234439 54 338 1.0 3.0 0.00 0.18 0.01 48 992.1
20260507233935 54 338 0.0 3.0 0.00 0.18 0.01 47 992.0
20260507233428 54 5 0.0 2.0 0.00 0.18 0.01 48 992.0
20260507232922 55 5 0.0 2.0 0.00 0.18 0.01 52 992.0
20260507232416 55 5 0.0 2.0 0.00 0.18 0.01 50 991.9
20260507231404 55 44 1.0 3.0 0.00 0.18 0.01 44 991.9
20260507225846 56 295 1.0 3.0 0.00 0.18 0.01 44 991.9
20260507225340 56 295 1.0 3.0 0.00 0.18 0.01 45 991.8
20260507224834 56 295 1.0 3.0 0.00 0.18 0.01 42 991.7
20260507224328 56 304 1.0 3.0 0.00 0.18 0.01 41 991.7
20260507223315 57 308 1.0 3.0 0.00 0.18 0.01 43 991.6
20260507222810 57 301 2.0 4.0 0.00 0.18 0.01 39 991.6
20260507222306 58 302 2.0 4.0 0.00 0.18 0.01 38 991.6
20260507221758 58 302 2.0 4.0 0.00 0.18 0.01 38 991.5
20260507221252 58 304 2.0 4.0 0.00 0.18 0.01 38 991.5
20260507220745 58 296 2.0 4.0 0.00 0.18 0.01 37 991.3
20260507215734 58 55 1.0 4.0 0.00 0.18 0.01 39 991.4
20260507215227 58 28 1.0 3.0 0.00 0.18 0.01 41 991.5
20260507214722 58 350 2.0 4.0 0.00 0.18 0.01 40 991.4
20260507214216 58 126 1.0 4.0 0.00 0.18 0.01 38 991.5
20260507213710 59 306 2.0 4.0 0.00 0.18 0.01 39 991.4
20260507213204 58 306 2.0 4.0 0.00 0.18 0.01 38 991.4
20260507212658 58 333 1.0 3.0 0.00 0.18 0.01 38 991.2
20260507212152 59 313 2.0 4.0 0.00 0.18 0.01 40 991.3
20260507211645 59 313 2.0 4.0 0.00 0.18 0.01 38 991.4
20260507211144 59 308 2.0 4.0 0.00 0.18 0.01 39 991.4
20260507210641 59 301 2.0 4.0 0.00 0.18 0.01 38 991.3
20260507210141 60 294 2.0 5.0 0.00 0.18 0.01 38 991.3
20260507205642 59 236 2.0 5.0 0.00 0.18 0.01 38 991.3
20260507205142 59 316 2.0 5.0 0.00 0.18 0.01 38 991.3
20260507204642 59 319 1.0 5.0 0.00 0.18 0.01 39 991.3
20260507204141 60 93 1.0 4.0 0.00 0.18 0.01 39 991.3
20260507203642 59 315 1.0 4.0 0.00 0.18 0.01 39 991.3
20260507203141 59 304 2.0 4.0 0.00 0.18 0.01 38 991.2
20260507202638 59 322 2.0 4.0 0.00 0.18 0.01 37 991.4
20260507202138 59 301 2.0 5.0 0.00 0.18 0.01 39 991.4
20260507201638 59 297 2.0 5.0 0.00 0.19 0.01 37 991.3
20260507200639 59 302 2.0 5.0 0.00 0.19 0.01 39 991.4
20260507200137 59 297 2.0 5.0 0.00 0.20 0.01 37 991.3
20260507195638 60 317 2.0 4.0 0.00 0.20 0.01 37 991.4
20260507195134 60 0 2.0 4.0 0.00 0.21 0.01 37 991.3
20260507194635 60 340 2.0 5.0 0.00 0.21 0.01 39 991.4
20260507194134 60 298 2.0 5.0 0.00 0.22 0.01 37 991.4
20260507193634 60 302 2.0 5.0 0.00 0.23 0.01 39 991.3
20260507193133 59 355 2.0 4.0 0.00 0.24 0.01 38 991.4
20260507192635 59 316 2.0 5.0 0.00 0.24 0.01 38 991.6
20260507191135 59 319 2.0 4.0 0.00 0.25 0.01 42 991.6
20260507190633 59 332 1.0 4.0 0.00 0.25 0.01 39 991.6
20260507190134 59 331 2.0 4.0 0.00 0.25 0.01 40 991.7
20260507185633 60 306 2.0 4.0 0.00 0.25 0.01 39 991.8
20260507185133 59 321 2.0 4.0 0.00 0.25 0.01 44 991.8
20260507184135 58 10 2.0 6.0 0.00 0.26 0.01 44 992.0
20260507183632 58 296 2.0 6.0 0.00 0.26 0.01 42 992.1
20260507183132 59 311 2.0 4.0 0.00 0.27 0.01 44 992.1
20260507182632 59 303 1.0 4.0 0.00 0.27 0.01 43 991.9
20260507182125 59 297 2.0 5.0 0.00 0.27 0.01 43 992.0
20260507181619 60 333 2.0 5.0 0.00 0.28 0.01 46 992.0
20260507181114 60 337 2.0 4.0 0.00 0.28 0.01 43 992.0
20260507175555 60 329 2.0 4.0 0.00 0.29 0.01 46 992.1
20260507175049 59 335 2.0 4.0 0.00 0.29 0.01 44 992.1
20260507174544 59 304 2.0 4.0 0.00 0.30 0.01 42 992.1
20260507174038 59 49 2.0 5.0 0.00 0.30 0.01 47 992.1
20260507173531 59 94 2.0 5.0 0.00 0.31 0.01 44 992.1
20260507173025 59 310 2.0 10.0 0.00 0.31 0.01 43 992.1
20260507172519 59 337 2.0 10.0 0.00 0.32 0.01 49 992.0
20260507172013 58 333 1.0 5.0 0.00 0.32 0.01 45 992.2
20260507171508 58 0 2.0 5.0 0.00 0.32 0.01 45 992.3
20260507170456 57 288 1.0 4.0 0.00 0.32 0.01 49 992.5
20260507165950 57 311 1.0 4.0 0.00 0.32 0.01 45 992.6
20260507165443 58 330 0.0 2.0 0.00 0.32 0.01 47 992.7
20260507164937 58 254 1.0 7.0 0.00 0.32 0.01 46 992.8
20260507164432 59 340 2.0 7.0 0.00 0.32 0.01 44 992.8
20260507163927 59 125 2.0 7.0 0.00 0.32 0.01 47 992.9
20260507163420 59 309 2.0 6.0 0.00 0.32 0.01 47 992.8
20260507162913 58 310 2.0 4.0 0.00 0.32 0.01 49 992.8
20260507161901 58 315 2.0 5.0 0.00 0.32 0.01 51 993.1
20260507161355 58 121 2.0 5.0 0.00 0.32 0.01 48 993.0
20260507160850 58 303 2.0 6.0 0.00 0.32 0.01 47 993.0
20260507160344 58 113 2.0 6.0 0.00 0.32 0.01 46 993.1
20260507155332 57 165 2.0 5.0 0.00 0.32 0.01 54 993.2
20260507154826 57 314 2.0 5.0 0.00 0.32 0.01 53 993.2
20260507154320 57 315 2.0 5.0 0.00 0.32 0.01 51 993.3
20260507153814 57 347 2.0 5.0 0.00 0.32 0.01 55 993.1
20260507152256 56 319 2.0 4.0 0.00 0.32 0.01 57 993.4
20260507151750 56 313 2.0 4.0 0.00 0.32 0.01 56 993.5
20260507151244 56 325 2.0 4.0 0.00 0.32 0.01 62 993.5
20260507150231 55 259 2.0 5.0 0.00 0.32 0.01 61 993.4
20260507145219 54 304 2.0 5.0 0.00 0.32 0.01 66 993.4
20260507144714 54 307 2.0 5.0 0.00 0.32 0.01 73 993.4
20260507143701 53 304 2.0 5.0 0.01 0.32 0.01 69 993.3
20260507143155 52 310 1.0 4.0 0.01 0.32 0.01 71 993.2
20260507142650 52 342 0.0 0.0 0.01 0.32 0.01 75 993.2
20260507142144 52 342 0.0 0.0 0.01 0.32 0.01 75 993.3
20260507141637 52 355 0.0 0.0 0.01 0.32 0.01 77 993.2
20260507141131 52 331 0.0 0.0 0.01 0.32 0.01 78 993.3
20260507140626 52 326 0.0 0.0 0.01 0.32 0.01 79 993.3
20260507140120 51 326 0.0 0.0 0.01 0.32 0.01 77 993.2
20260507135614 51 57 0.0 0.0 0.01 0.32 0.01 82 993.2
20260507135108 51 57 0.0 2.0 0.01 0.32 0.01 82 993.2
20260507134601 51 9 1.0 3.0 0.01 0.32 0.01 81 993.3
20260507134101 51 9 1.0 4.0 0.01 0.32 0.01 81 993.3
20260507133101 51 52 0.0 0.0 0.00 0.31 0.00 82 993.4
20260507132600 50 320 0.0 1.0 0.00 0.31 0.00 83 993.6
20260507132058 50 317 0.0 1.0 0.00 0.31 0.00 84 993.6
20260507131557 49 316 0.0 0.0 0.00 0.31 0.00 84 993.7
20260507131058 49 316 0.0 2.0 0.00 0.31 0.00 85 993.7
20260507130555 49 342 1.0 3.0 0.00 0.31 0.00 87 993.7
20260507130053 48 342 0.0 3.0 0.00 0.31 0.00 89 993.8
20260507125552 48 355 0.0 2.0 0.00 0.31 0.00 90 993.8
20260507125052 48 355 0.0 2.0 0.00 0.31 0.00 91 993.8
20260507124551 47 355 0.0 0.0 0.00 0.31 0.00 91 993.7
20260507124048 47 355 0.0 1.0 0.00 0.31 0.00 91 993.6
20260507123547 47 355 0.0 2.0 0.00 0.31 0.00 92 993.5
20260507123044 47 355 0.0 3.0 0.00 0.31 0.00 93 993.5